sat.trackr.live / text

‹ back to catalog

STARLINK-36625

NORAD 67668 · 2026-022W

PAYLOAD ACTIVE UNKNOWN

§ Identity

Operator
Country
US
Launch date
2026-02-02
Launch site
AFWTR
Launch vehicle
Mass (kg)
RCS (m²)

Purposes: comms

External: N2YO · Heavens-Above · Gunter

§ Orbital elements

Epoch: 2026-05-25T01:03:02.012256Z

Period
93.91 min
Inclination
97.2831°
Eccentricity
0.0001063
Mean motion
15.33451674 rev/d
Perigee alt
464.8 km
Apogee alt
466.3 km
Semi-major
6,843.7 km
B*
4.9731e-4
RAAN
178.2937°
Arg perigee
98.2974°
Mean anomaly
261.8390°
Rev number
1,727

§ Raw data

STARLINK-366251 67668U 26022W   26145.04377329  .00016017  00000+0  49731-3 0  99992 67668  97.2831 178.2937 0001063  98.2974 261.8390 15.33451674 17276

JSON: /api/v1/satellites/67668 · /tle

For live sub-satellite position, see the globe view (requires WebGL).

§ Visibility from observer

Set your observer location to see the next 7 days of passes ≥ 10°. The values pass through the URL so the page stays shareable.

No JS? Fill the form by hand. The geolocation button needs JavaScript.